Arlington, WA
on Friday, November 30, 2012

Friday
Previous Day Next Day
Daily Summary
 ActualAverageRecord
Temperature
Mean Temperature °F °F  
Max Temperature 51°F 45°F 59°F (2008)
Min Temperature 42°F 22°F 22°F (1976)
Degree Days
Heating Degree Days 18    
Moisture
Dew Point 45°F   
Average Humidity 87    
Maximum Humidity 100    
Minimum Humidity 76    
Precipitation
Precipitation 0.44 in in in ()
Wind
Wind Speed 5 mph   
Max Wind Speed 18 mph   
Max Gust Speed 22 mph   
Visibility 10 miles   
Events     
Averages and records for this station are not official NWS values.
Key: T is trace of precipitation, MM is missing value
Source: NWS Daily Summary
Seasonal Weather Averages
Time(PST)TemperatureDew PointHumidity Pressure Visibility Wind DirectionWind SpeedGust SpeedPrecipitationEvents Conditions
12:15 AM 44.6°F 44.6°F 100% 29.45 in 10.0 miles Calm Calm - N/A   Overcast
12:35 AM 42.8°F 41.0°F 93% 29.44 in 9.0 miles Calm Calm - N/A   Mostly Cloudy
12:55 AM 44.6°F 42.8°F 93% 29.44 in 10.0 miles Calm Calm - N/A   Overcast
1:15 AM 44.6°F 42.8°F 93% 29.44 in 9.0 miles Calm Calm - N/A   Overcast
1:35 AM 44.6°F 42.8°F 93% 29.46 in 10.0 miles South 4.6 mph - N/A   Overcast
1:55 AM 44.6°F 42.8°F 93% 29.46 in 9.0 miles SSE 8.1 mph - 0.02 in   Overcast
2:15 AM 46.4°F 42.8°F 87% 29.46 in 10.0 miles SSE 6.9 mph - 0.02 in   Overcast
2:35 AM 46.4°F 42.8°F 87% 29.46 in 10.0 miles SE 3.5 mph - 0.03 in   Overcast
2:55 AM 46.4°F 44.6°F 93% 29.43 in 9.0 miles East 10.4 mph - 0.05 in   Overcast
3:15 AM 46.4°F 44.6°F 93% 29.43 in 10.0 miles East 6.9 mph - N/A   Overcast
3:35 AM 46.4°F 44.6°F 93% 29.41 in 10.0 miles ENE 6.9 mph - N/A   Overcast
3:55 AM 46.4°F 44.6°F 93% 29.41 in 10.0 miles West 3.5 mph - N/A   Overcast
4:15 AM 46.4°F 44.6°F 93% 29.41 in 10.0 miles Calm Calm - N/A   Overcast
4:35 AM 46.4°F 44.6°F 93% 29.40 in 10.0 miles Calm Calm - N/A   Overcast
4:55 AM 46.4°F 44.6°F 93% 29.40 in 10.0 miles Calm Calm - N/A   Overcast
5:15 AM 46.4°F 44.6°F 93% 29.40 in 10.0 miles Calm Calm - N/A   Overcast
5:35 AM 48.2°F 44.6°F 87% 29.40 in 10.0 miles Calm Calm - N/A   Overcast
5:55 AM 48.2°F 44.6°F 87% 29.38 in 10.0 miles ESE 10.4 mph - N/A   Overcast
6:15 AM 50.0°F 44.6°F 82% 29.37 in 10.0 miles ESE 6.9 mph - N/A   Mostly Cloudy
6:35 AM 51.8°F 44.6°F 76% 29.37 in 10.0 miles Calm Calm - N/A   Overcast
6:55 AM 48.2°F 44.6°F 87% 29.37 in 10.0 miles Calm Calm - N/A   Overcast
7:15 AM 48.2°F 44.6°F 87% 29.38 in 10.0 miles Calm Calm - N/A   Overcast
7:35 AM 48.2°F 44.6°F 87% 29.39 in 10.0 miles SSE 6.9 mph - N/A   Overcast
7:55 AM 48.2°F 42.8°F 82% 29.40 in 10.0 miles SSW 8.1 mph - 0.01 in   Overcast
8:15 AM 46.4°F 44.6°F 93% 29.42 in 10.0 miles South 4.6 mph - N/A   Overcast
8:35 AM 48.2°F 44.6°F 87% 29.42 in 10.0 miles SSW 4.6 mph - N/A   Overcast
8:55 AM 48.2°F 44.6°F 87% 29.42 in 10.0 miles SE 16.1 mph 20.7 mph N/A   Overcast
9:15 AM 48.2°F 44.6°F 87% 29.42 in 10.0 miles SE 16.1 mph 20.7 mph N/A   Mostly Cloudy
9:35 AM 50.0°F 44.6°F 82% 29.43 in 10.0 miles ESE 13.8 mph 19.6 mph N/A   Mostly Cloudy
9:55 AM 51.8°F 44.6°F 76% 29.43 in 10.0 miles SE 12.7 mph 18.4 mph N/A   Overcast
10:15 AM 51.8°F 44.6°F 76% 29.43 in 10.0 miles SE 12.7 mph 18.4 mph N/A   Overcast
10:35 AM 51.8°F 44.6°F 76% 29.44 in 10.0 miles SE 11.5 mph - N/A   Overcast
10:55 AM 51.8°F 46.4°F 82% 29.44 in 10.0 miles SSW 3.5 mph - N/A   Overcast
11:15 AM 50.0°F 46.4°F 87% 29.43 in 10.0 miles SSE 4.6 mph - N/A   Overcast
11:35 AM 51.8°F 46.4°F 82% 29.43 in 10.0 miles SE 11.5 mph - N/A   Overcast
11:55 AM 51.8°F 44.6°F 76% 29.44 in 10.0 miles SSE 18.4 mph - N/A   Overcast
12:15 PM 51.8°F 46.4°F 82% 29.43 in 10.0 miles SE 12.7 mph - N/A   Overcast
12:35 PM 51.8°F 46.4°F 82% 29.43 in 10.0 miles SE 9.2 mph - N/A   Overcast
12:55 PM 51.8°F 46.4°F 82% 29.43 in 9.0 miles Calm Calm - N/A   Overcast
1:15 PM 51.8°F 46.4°F 82% 29.43 in 10.0 miles Calm Calm - N/A   Overcast
1:35 PM 51.8°F 46.4°F 82% 29.43 in 10.0 miles Calm Calm - 0.01 in   Overcast
1:55 PM 51.8°F 46.4°F 82% 29.44 in 9.0 miles SW 3.5 mph - 0.02 in   Overcast
2:15 PM 50.0°F 48.2°F 94% 29.44 in 7.0 miles ESE 4.6 mph - 0.01 in   Overcast
2:35 PM 50.0°F 46.4°F 87% 29.43 in 9.0 miles ESE 6.9 mph - 0.01 in   Overcast
2:55 PM 50.0°F 46.4°F 87% 29.45 in 5.0 miles SE 4.6 mph - 0.02 in   Overcast
3:15 PM 50.0°F 46.4°F 87% 29.45 in 10.0 miles SSE 9.2 mph - 0.01 in   Overcast
3:35 PM 50.0°F 46.4°F 87% 29.46 in 9.0 miles SSE 10.4 mph - 0.02 in   Overcast
4:15 PM 50.0°F 46.4°F 87% 29.46 in 9.0 miles SSE 6.9 mph - 0.01 in   Mostly Cloudy
4:35 PM 50.0°F 46.4°F 87% 29.46 in 10.0 miles SE 10.4 mph - 0.01 in   Mostly Cloudy
4:55 PM 50.0°F 46.4°F 87% 29.45 in 10.0 miles SE 10.4 mph - 0.02 in   Mostly Cloudy
5:15 PM 50.0°F 46.4°F 87% 29.46 in 9.0 miles SE 12.7 mph - 0.01 in   Mostly Cloudy
5:35 PM 50.0°F 46.4°F 87% 29.46 in 10.0 miles SSE 10.4 mph 16.1 mph 0.07 in   Overcast
5:55 PM 48.2°F 46.4°F 93% 29.46 in 10.0 miles South 12.7 mph 21.9 mph 0.10 in   Mostly Cloudy
6:15 PM 48.2°F 46.4°F 93% 29.46 in 10.0 miles SSE 12.7 mph - 0.01 in   Overcast
6:35 PM 48.2°F 46.4°F 93% 29.46 in 10.0 miles SSE 10.4 mph - 0.02 in   Overcast
7:15 PM 48.2°F 44.6°F 87% 29.47 in 10.0 miles SSE 12.7 mph - N/A   Mostly Cloudy
7:35 PM 48.2°F 44.6°F 87% 29.47 in 10.0 miles SE 13.8 mph 20.7 mph 0.01 in   Mostly Cloudy
8:15 PM 48.2°F 46.4°F 93% 29.46 in 10.0 miles SE 11.5 mph - N/A   Overcast
8:35 PM 48.2°F 44.6°F 87% 29.46 in 10.0 miles ESE 11.5 mph 16.1 mph 0.01 in   Overcast
8:55 PM 48.2°F 44.6°F 87% 29.45 in 10.0 miles ESE 11.5 mph 18.4 mph 0.03 in   Overcast
9:15 PM 48.2°F 44.6°F 87% 29.45 in 10.0 miles SE 10.4 mph - 0.02 in   Overcast
9:35 PM 48.2°F 44.6°F 87% 29.45 in 10.0 miles SE 12.7 mph 19.6 mph 0.05 in   Overcast
9:55 PM 48.2°F 44.6°F 87% 29.44 in 10.0 miles ESE 11.5 mph - 0.05 in   Overcast
10:15 PM 48.2°F 44.6°F 87% 29.43 in 10.0 miles ESE 13.8 mph 17.3 mph N/A   Overcast
10:35 PM 48.2°F 44.6°F 87% 29.42 in 10.0 miles ESE 11.5 mph 18.4 mph N/A   Overcast
10:55 PM 48.2°F 44.6°F 87% 29.42 in 10.0 miles ESE 9.2 mph - N/A   Overcast
11:15 PM 48.2°F 44.6°F 87% 29.42 in 9.0 miles ESE 3.5 mph - 0.01 in   Overcast
11:35 PM 46.4°F 44.6°F 93% 29.43 in 7.0 miles ESE 9.2 mph - 0.07 in   Overcast
Moon Phase
Nov. 30 Dec. 06 Dec. 13 Dec. 20 Dec. 28
Sunrise:07:37 AM (PST) Moon Rise:06:18 PM (PST)11/30
Sunset:04:17 PM (PST) Moon Set:09:12 AM (PST)11/30

Copyright © 2014 The Weather Underground, Inc.